TimeCDT,TemperatureF,Dew PointF,Humidity,Sea Level PressureIn,VisibilityMPH,Wind Direction,Wind SpeedMPH,Gust SpeedMPH,PrecipitationIn,Events,Conditions,WindDirDegrees,DateUTC
12:52 AM,44.1,37.9,79,30.00,10.0,NW,13.8,25.3,N/A,,Overcast,320,2013-11-02 05:52:00
1:52 AM,42.1,37.0,82,30.03,10.0,NNW,12.7,-,N/A,,Partly Cloudy,330,2013-11-02 06:52:00
2:52 AM,41.0,36.0,82,30.05,10.0,NW,13.8,-,N/A,,Mostly Cloudy,310,2013-11-02 07:52:00
3:52 AM,39.0,35.1,86,30.06,10.0,NNW,10.4,-,N/A,,Clear,330,2013-11-02 08:52:00
4:52 AM,37.0,34.0,89,30.09,10.0,WNW,5.8,-,N/A,,Clear,300,2013-11-02 09:52:00
5:52 AM,34.0,32.0,92,30.13,10.0,NW,5.8,-,N/A,,Clear,310,2013-11-02 10:52:00
6:52 AM,33.1,30.9,92,30.14,10.0,WNW,6.9,-,N/A,,Clear,290,2013-11-02 11:52:00
7:52 AM,33.1,30.0,89,30.16,10.0,WNW,6.9,-,N/A,,Clear,290,2013-11-02 12:52:00
8:52 AM,34.0,32.0,92,30.17,10.0,WNW,5.8,-,N/A,,Clear,290,2013-11-02 13:52:00
9:52 AM,39.0,34.0,82,30.18,10.0,WNW,6.9,-,N/A,,Clear,290,2013-11-02 14:52:00
10:52 AM,44.1,36.0,73,30.18,10.0,WNW,8.1,-,N/A,,Clear,290,2013-11-02 15:52:00
11:52 AM,48.0,36.0,63,30.18,10.0,NW,8.1,-,N/A,,Clear,320,2013-11-02 16:52:00
12:52 PM,52.0,36.0,54,30.17,10.0,Calm,Calm,-,N/A,,Clear,0,2013-11-02 17:52:00
1:52 PM,55.9,35.1,45,30.14,10.0,Calm,Calm,-,N/A,,Clear,0,2013-11-02 18:52:00
2:52 PM,57.9,30.9,36,30.11,10.0,WNW,8.1,-,N/A,,Clear,300,2013-11-02 19:52:00
3:52 PM,60.1,28.9,31,30.09,10.0,NW,6.9,-,N/A,,Clear,310,2013-11-02 20:52:00
4:52 PM,59.0,28.0,31,30.09,10.0,NW,8.1,-,N/A,,Clear,310,2013-11-02 21:52:00
5:52 PM,57.0,28.9,34,30.09,10.0,Calm,Calm,-,N/A,,Clear,0,2013-11-02 22:52:00
6:52 PM,48.0,30.0,50,30.09,10.0,Calm,Calm,-,N/A,,Clear,0,2013-11-02 23:52:00
7:52 PM,45.0,30.9,58,30.10,10.0,Calm,Calm,-,N/A,,Clear,0,2013-11-03 00:52:00
8:52 PM,39.0,30.0,70,30.09,10.0,ESE,5.8,-,N/A,,Clear,110,2013-11-03 01:52:00
9:52 PM,37.0,30.0,76,30.08,10.0,East,9.2,-,N/A,,Clear,100,2013-11-03 02:52:00
10:52 PM,34.0,28.9,82,30.08,10.0,ESE,8.1,-,N/A,,Clear,110,2013-11-03 03:52:00
11:52 PM,34.0,28.9,82,30.07,10.0,ESE,8.1,-,N/A,,Clear,110,2013-11-03 04:52:00